Location: *
(46.3500°N, 10.9000°E)
Time: 21:04:14
(UTC+00:00)

Explorer 7 - Pass Details

Date: 28 April 2021
Orbit: 484 x 677 km, 50.3° (Epoch: 05 May)

Event Time Altitude Azimuth Distance (km) Brightness Sun altitude
Rises 16:08:53 0° 228° (SW) 2,547 11.0 21.5°
Reaches altitude 10° 16:11:03 10° 223° (SW) 1,681 10.1 21.1°
Maximum altitude 16:14:43 50° 148° (SSE) 649 7.2 20.5°
Drops below altitude 10° 16:18:34 10° 72° (ENE) 1,762 8.9 19.8°
Sets 16:20:53 0° 68° (ENE) 2,686 9.8 19.4°
